sat.trackr.live / text

‹ back to catalog

POEM-2

NORAD 56308 · 2023-057A

PAYLOAD ACTIVE UNKNOWN

§ Identity

Operator
Country
IND
Launch date
2023-04-22
Launch site
SRILR
Launch vehicle
Mass (kg)
RCS (m²)

External: N2YO · Heavens-Above · Gunter

§ Orbital elements

Epoch: 2026-09-21T12:38:51.141120Z

Period
96.31 min
Inclination
9.8888°
Eccentricity
0.0020909
Mean motion
14.95203596 rev/d
Perigee alt
567.2 km
Apogee alt
596.3 km
Semi-major
6,959.9 km
B*
8.6673e-5
RAAN
281.6784°
Arg perigee
223.9702°
Mean anomaly
135.8844°
Rev number
18,670

§ Raw data

POEM-21 56308U 23057A   26264.52698080  .00001685  00000+0  86673-4 0  99902 56308   9.8888 281.6784 0020909 223.9702 135.8844 14.95203596186705

JSON: /api/v1/satellites/56308 · /tle

For live sub-satellite position, see the globe view (requires WebGL).

§ Visibility from observer

Set your observer location to see the next 7 days of passes ≥ 10°. The values pass through the URL so the page stays shareable.

No JS? Fill the form by hand. The geolocation button needs JavaScript.